[Iaude] MPEC M109: 2022 MB3 [a=1.29,e=0.24,i=22.6,H=26.8]

mpec at marsden.cfa.harvard.edu mpec at marsden.cfa.harvard.edu
Thu Jun 30 07:17:29 EDT 2022


M.P.E.C. 2022-M109                                Issued 2022 June 30, 11:16 UT

     The Minor Planet Electronic Circulars contain information on unusual
         minor planets and routine data on comets.  They are published
    on behalf of Division F of the International Astronomical Union by the
          Minor Planet Center, Smithsonian Astrophysical Observatory,
                          Cambridge, MA 02138, U.S.A.

             Prepared using the Tamkin Foundation Computer Network

                              MPC at CFA.HARVARD.EDU
            URL https://www.minorplanetcenter.net/    ISSN 1523-6714

                                    2022 MB3                                    


Observations:
     K22M03B* C2022 06 29.30351118 24 55.376+32 07 56.95         19.9 GVEM109U68
     K22M03B  C2022 06 29.30746518 24 55.975+32 06 17.10         19.9 GVEM109U68
     K22M03B  C2022 06 29.32780318 24 58.957+31 57 35.55         19.8 GVEM109U68
     K22M03B  C2022 06 29.33114518 24 59.441+31 56 08.40         19.8 GVEM109U68
     K22M03B  C2022 06 29.33972518 25 00.722+31 52 23.98         20.0 GVEM109U68
     K22M03B  C2022 06 29.34306718 25 01.246+31 50 56.13         20.0 GVEM109U68
     K22M03B  C2022 06 29.36442818 25 04.560+31 41 26.34         19.8 GVEM109U68
     K22M03B  C2022 06 29.36777018 25 05.022+31 39 54.48         19.8 GVEM109U68
     K22M03B KC2022 06 29.86254118 29 10.418+26 59 40.85         18.9 GVEM109B49
     K22M03B KC2022 06 29.86314218 29 10.630+26 59 15.58         18.6 GVEM109B49
     K22M03B IC2022 06 29.89990018 29 16.32 +26 33 01.8          19.3 GVEM109L01
     K22M03B IC2022 06 29.90259518 29 17.19 +26 31 03.3          19.5 GVEM109L01
     K22M03B KC2022 06 29.90569618 29 18.24 +26 28 48.6          19.4 GVEM109L01
     K22M03B KC2022 06 29.90683718 29 18.64 +26 27 57.9          19.3 GVEM109L01
     K22M03B KC2022 06 29.90798018 29 19.03 +26 27 07.1          19.6 GVEM109L01
     K22M03B KC2022 06 29.90921818 29 19.42 +26 26 12.8          19.6 GVEM109L01
     K22M03B KC2022 06 29.91337718 29 25.71 +26 23 12.7                XEM109C95
     K22M03B KC2022 06 29.92303318 29 28.97 +26 16 03.9                XEM109C95
     K22M03B KC2022 06 29.92343 18 29 20.25 +26 15 17.1          18.9 RoEM109K88
     K22M03B KC2022 06 29.92740 18 29 21.57 +26 12 18.7                oEM109K88
     K22M03B KC2022 06 29.94187018 29 30.30 +26 01 38.4          18.5 GXEM109595
     K22M03B KC2022 06 29.94266218 29 33.41 +26 00 59.8                VEM109204
     K22M03B KC2022 06 29.94625418 29 31.73 +25 58 16.8                XEM109595
     K22M03B KC2022 06 29.94909018 29 35.57 +25 56 04.0          19.1 GVEM109204
     K22M03B KC2022 06 29.94981318 29 35.70 +25 55 34.1          19.0 GVEM109203
     K22M03B KC2022 06 29.95057918 29 33.14 +25 54 56.4                XEM109595
     K22M03B KC2022 06 29.95518518 29 37.62 +25 51 21.3                VEM109204
     K22M03B KC2022 06 29.95536418 29 37.56 +25 51 16.6                VEM109203
     K22M03B KC2022 06 29.96097018 29 39.44 +25 46 54.8          19.0 GVEM109203
     K22M03B KC2022 06 29.96325 18 29 40.265+25 45 03.49         18.5 GVEM109K38
     K22M03B KC2022 06 29.96455 18 29 39.51 +25 44 24.3          18.8 RqEM109104
     K22M03B KC2022 06 29.96754 18 29 40.51 +25 42 03.1          18.6 RqEM109104
     K22M03B KC2022 06 29.97479 18 29 44.208+25 35 57.52         18.6 GVEM109K38
     K22M03B KC2022 06 29.97803 18 29 44.01 +25 33 43.8          18.9 RqEM109104
     K22M03B KC2022 06 29.99146 18 29 49.934+25 22 35.15         18.3 GVEM109K38
     K22M03B KC2022 06 30.22219618 32 25.34 +21 51 12.5          18.5 VuEM109H21
     K22M03B KC2022 06 30.22325818 32 25.79 +21 50 05.8          18.5 VuEM109H21
     K22M03B KC2022 06 30.22431918 32 26.25 +21 48 58.9          18.7 VuEM109H21
     K22M03B KC2022 06 30.22538218 32 26.71 +21 47 52.2          19.0 VuEM109H21
     K22M03B KC2022 06 30.22630118 32 27.10 +21 46 54.3          18.7 VuEM109H21

Observer details:
104 San Marcello Pistoiese.  Observers P. Bacci, M. Maestripieri.  Measurers
    P. Bacci, L. Tesi, G. Fagioli.  0.60-m F4 Reflector + CCD.
203 GiaGa Observatory.  Observers S. Foglia, G. Galli.  Measurer G. Galli.
    0.36-m f/5.76 Schmidt-Cassegrain + CCD.
204 Schiaparelli Observatory.  Observer L. Buzzi.  0.84-m f/3.5 reflector +
    CCD.
595 Farra d'Isonzo.  Observer E. Pettarin.  0.61-m f/4.5 reflector + CCD.
B49 Paus Observatory, Sabadell.  Observer J. Camarasa.  Measurer G.
    Duszanowicz.  0.30-m f/4.0 0.30-m f/4 reflector + CCD.
C95 SATINO Remote Observatory, Haute Provence.  Observer J. Jahn.  0.60-m
    f/3.2 Newtonian reflector + CCD.
H21 Astronomical Research Observatory, Westfield.  Observer R. Holmes.
    Measurers T. Linder, R. Holmes, L. Horn.  0.76-m f/3.0 astrograph + CCD.
K38 M57 Observatory, Saltrio.  Observer G. Baj.  0.35-m f/5.3 Ritchey-Chretien
    0.35m f/5.3 + CCD.
K88 GINOP-KHK, Piszkesteto.  Observer K. Sarneczky.  0.60-m Schmidt + CCD.
L01 Visnjan Observatory, Tican.  Observers K. Korlevic, L. Poropat.  Measurer
    K. Korlevic.  1.0-m f/2.9 reflector + CCD.
U68 JPL SynTrack Robotic Telescope, Auberry.  Observers N. Saini, C. Zhai, R.
    Trahan, M. Zhan, M. Shao.  0.28-m Reflector + CCD.

Orbital elements:
2022 MB3                                                 Earth MOID = 0.0052 AU
Epoch 2022 Aug. 9.0 TT = JDT 2459800.5                  Veres                   
M   2.91563              (2000.0)            P               Q                  
n   0.67556208     Peri.  217.67979     +0.68385788     +0.62351795             
a   1.2863502      Node    99.21316     -0.54052274     +0.78176991             
e   0.2371676      Incl.   22.57236     -0.49007506     +0.00782175             
P   1.46           H   26.80          G   0.15           U   7                  
Residuals in seconds of arc
220629 U68  0.2+  0.1+    220629 L01  0.2+  0.2-    220629 203  0.2-  0.0
220629 U68  0.3+  0.2+    220629 L01  0.1-  0.0     220629 K38  0.2+  0.5-
220629 U68  0.1-  0.0     220629 C95  0.4+  0.2-    220629 104  0.9-  0.8+
220629 U68  0.3-  0.3-    220629 C95  0.5+  0.6-    220629 104  0.8-  0.7+
220629 U68  0.3-  0.3-    220629 K88  0.0   0.0     220629 K38  0.4+  0.4-
220629 U68  0.0   0.1-    220629 K88  0.1-  0.7+    220629 104  0.8-  0.5+
220629 U68  0.4+  0.9+    220629 595  0.2+  0.5+    220629 K38  0.3+  0.1-
220629 U68  0.4-  0.4-    220629 204  0.2+  0.6+    220630 H21  0.0   0.1+
220629 B49  0.1+  0.2-    220629 595  0.2-  0.6+    220630 H21  0.1-  0.0
220629 B49  0.0   0.5-    220629 204  0.1+  0.4+    220630 H21  0.1-  0.2-
220629 L01  0.2-  0.7+    220629 203  0.0   0.2+    220630 H21  0.1-  0.0
220629 L01  0.5-  0.2-    220629 595  0.7-  0.2+    220630 H21  0.2-  0.1+
220629 L01  0.3-  0.9+    220629 204  0.0   0.2+
220629 L01  0.0   0.3+    220629 203  0.1-  0.1+

Ephemeris:
2022 MB3                 a,e,i = 1.29, 0.24, 23                  q = 0.9813
Date    TT    R. A. (2000) Decl.     Delta      r    Elong.  Phase     V
2022 05 31    18 06 32.6 +45 00 34   0.2308  1.1128   109.6    59.1    26.0
...
2022 06 15    18 10 09.7 +45 49 00   0.1232  1.0649   110.4    63.4    24.6
...
2022 06 23    18 13 07.4 +44 12 05   0.06418 1.0424   112.3    64.4    23.2
...
2022 06 29    18 23 15.8 +34 03 03   0.01985 1.0275   122.7    56.4    20.4
2022 06 30    18 29 58.2 +25 20 19   0.01278 1.0252   131.4    48.0    19.2
2022 07 01    18 46 31.1 -01 35 32   0.0066741.0229   158.4    21.5    17.0
...
2022 07 07    05 56 34.0 -55 49 58   0.04099 1.0102    79.7    98.0    23.4
...
2022 07 15    06 03 49.9 -51 23 15   0.09990 0.9966    75.7    98.7    25.4
...
2022 07 30    06 08 44.6 -48 53 18   0.2055  0.9824    75.0    93.3    26.6

M. P. C. Staff               (C) Copyright 2022 MPC           M.P.E.C. 2022-M109




More information about the Iaude mailing list